Location: Katherine
(14.4670°S, 132.2670°E)
Time: 11:58:53
(UTC+09:30)

ISS - Visible Passes

Search period start: 24 March 2019 00:00
Search period end: 03 April 2019 00:00
Orbit: 408 x 411 km, 51.6° (Epoch: 23 March)

Date Brightness Start Highest point End Pass type
(mag) Time Alt. Az. Time Alt. Az. Time Alt. Az.
24 Mar -2.8 05:26:42 30° N 05:27:55 45° NE 05:31:07 10° SE visible
25 Mar -0.4 04:39:18 12° E 04:39:18 12° E 04:39:45 10° ESE visible
25 Mar -1.9 06:12:08 12° W 06:13:49 16° SW 06:15:58 10° S visible
26 Mar -2.1 05:24:33 24° S 05:24:33 24° S 05:26:14 10° SSE visible
